Location: Newark
(44.6768°N, 22.5302°E)
Time: 00:18:58
(UTC+00:00)

UKube-1 - Pass Details

Date: 06 July 2022
Orbit: 608 x 615 km, 98.4° (Epoch: 15 August)

Event Time Altitude Azimuth Distance (km) Brightness Sun altitude
Rises 21:45:18 0° 359° (N) 2,893 ? -21.8°
Reaches altitude 10° 21:48:01 10° 341° (NNW) 1,981 ? -21.9°
Maximum altitude 21:50:59 19° 297° (WNW) 1,490 ? -22.0°
Drops below altitude 10° 21:53:57 10° 253° (WSW) 1,968 ? -22.1°
Enters shadow 21:54:15 - 250° (WSW) 2,057 ? -22.1°
